Weather History for South Lake Tahoe, CA

Change the Weather History Date:

Sunday, May 25, 2014

  Actual Average Record
Temperature  
Mean Temperature 61 °F 50 °F  
Max Temperature 78 °F 66 °F 83 °F (1986)
Min Temperature 43 °F 34 °F 21 °F (1953)
Degree Days  
Heating Degree Days 4 15  
Month to date heating degree days 382 445  
Since 1 July heating degree days 6423 7335  
Cooling Degree Days 0 0  
Month to date cooling degree days 0 0  
Year to date cooling degree days 0 0  
Growing Degree Days 10 (Base 50)    
Moisture  
Dew Point 39 °F    
Average Humidity 55    
Maximum Humidity 89    
Minimum Humidity 20    
Precipitation  
Precipitation 0.00 in - 1.01 in (1942)
Month to date precipitation 1.30  
Year to date precipitation 12.40  
Sea Level Pressure  
Sea Level Pressure 30.04 in    
Wind  
Wind Speed 3 mph (South)    
Max Wind Speed 13 mph    
Max Gust Speed 20 mph    
Visibility 10 miles    
Events      
T = Trace of Precipitation, MM = Missing Value Source: NWS Daily Summary

Daily Weather History Graph

Daily Weather History Graph

Search for Another Location

Airport:

Trip Planner

Search our weather history database for the weather conditions in past years. The results will help you decide how hot, cold, wet, or windy it might be!

Date:

Astronomy

May. 25, 2014 Rise Set
Actual Time 5:39 AM PDT 8:14 PM PDT
Civil Twilight 5:09 AM PDT 8:45 PM PDT
Nautical Twilight 4:30 AM PDT 9:23 PM PDT
Astronomical Twilight 3:47 AM PDT 10:06 PM PDT
Moon 3:45 AM PDT (5/25) 5:21 PM PDT (5/25)
Length of Visible Light 15h 36m
Length of Day
14h 34m
Waning Crescent, 10% of the Moon is Illuminated
May 25
Waning Crescent
May 28
New
Jun 5
First Quarter
Jun 12
Full
Jun 19
Last Quarter

Hourly Weather History & Observations

Time (PDT) Temp. Dew Point Humidity Pressure Visibility Wind Dir Wind Speed Gust Speed Precip Events Conditions
12:53 AM 51.1 °F 44.1 °F 77% 30.06 in 10.0 mi Calm Calm - N/A   Clear
1:53 AM 48.9 °F 43.0 °F 80% 30.05 in 10.0 mi South 3.5 mph - N/A   Clear
2:53 AM 48.0 °F 42.1 °F 80% 30.05 in 10.0 mi SW 3.5 mph - N/A   Clear
3:53 AM 46.0 °F 41.0 °F 83% 30.05 in 10.0 mi Calm Calm - N/A   Clear
5:53 AM 43.0 °F 39.0 °F 86% 30.08 in 10.0 mi Calm Calm - N/A   Clear
6:53 AM 46.0 °F 41.0 °F 83% 30.09 in 10.0 mi Calm Calm - N/A   Clear
8:53 AM 63.0 °F 43.0 °F 48% 30.05 in 10.0 mi NE 3.5 mph - N/A   Clear
9:53 AM 64.0 °F 46.0 °F 52% 30.05 in 10.0 mi Variable 4.6 mph - N/A   Clear
10:53 AM 68.0 °F 46.0 °F 45% 30.04 in 10.0 mi NE 5.8 mph - N/A   Clear
11:53 AM 72.0 °F 44.1 °F 37% 30.03 in 10.0 mi NE 8.1 mph - N/A   Clear
12:53 PM 73.9 °F 43.0 °F 33% 30.01 in 10.0 mi NNE 11.5 mph - N/A   Clear
1:53 PM 77.0 °F 34.0 °F 21% 30.01 in 10.0 mi South 9.2 mph - N/A   Clear
2:53 PM 77.0 °F 36.0 °F 23% 30.01 in 10.0 mi SW 8.1 mph - N/A   Clear
3:53 PM 77.0 °F 36.0 °F 23% 30.01 in 10.0 mi Variable 6.9 mph 17.3 mph N/A   Clear
4:53 PM 75.9 °F 34.0 °F 22% 30.01 in 10.0 mi Variable 6.9 mph - N/A   Clear
5:53 PM 73.9 °F 35.1 °F 24% 30.01 in 10.0 mi SSW 10.4 mph - N/A   Clear
6:53 PM 71.1 °F 33.1 °F 25% 30.02 in 10.0 mi Variable 5.8 mph - N/A   Clear
7:53 PM 64.9 °F 37.0 °F 36% 30.02 in 10.0 mi SSW 8.1 mph - N/A   Clear
8:53 PM 57.9 °F 37.0 °F 46% 30.03 in 10.0 mi Calm Calm - N/A   Clear
9:53 PM 54.0 °F 39.9 °F 59% 30.06 in 10.0 mi Calm Calm - N/A   Clear
10:53 PM 51.1 °F 37.9 °F 61% 30.06 in 10.0 mi Calm Calm - N/A   Clear
11:53 PM 46.9 °F 34.0 °F 61% 30.05 in 10.0 mi South 3.5 mph - N/A   Clear